weather.gov     
National Weather Service

Regional Weather Roundup
NWS Homepage
This page is being discontinued on March 12, 2014.
The same data is available at this site. Please update your bookmarks.
Thank you, and we apologize for the inconvenience.
Please send an email to SR-SRH.Webmaster@noaa.gov with any concerns.


Current Version
Previous Version:    01  02  03  04  05  06  07  08  09  10  11  12  13  14  15  16  17  18  19  20  21  22  23  24  25  26  27  28  29  30  
   31  32  33  34  35  36  37  38  39  40  41  42  43  44  45  46  47  48  49  50  51  52  53  
[Printable]
110
ASUS44 KMEG 010810
RWRTN
TENNESSEE HOURLY STATE WEATHER ROUNDUP
NATIONAL WEATHER SERVICE MEMPHIS TN
200 AM CST SUN FEB 01 2015

TNZ002-004-019-021-049-052-054-088>092-010900-
WEST TENNESSEE

CITY           SKY/WX    TMP DP  RH WIND       PRES   REMARKS
MEMPHIS INTL   CLOUDY    51  24  34 S13       30.00F
NWS MEMPHIS      N/A     50 N/A N/A MISG        N/A
JACKSON        CLOUDY    51  20  29 S10       30.04F
DYERSBURG      CLOUDY    45  19  36 SE8       30.03F
UNION CITY     PTCLDY    43  23  45 S8        30.01F
PARIS          MOCLDY    43  19  39 SE7       30.05F
LEXINGTON      CLOUDY    48  19  32 S7        30.06F
SAVANNAH       MOCLDY    48  19  32 S9        30.07F
$$

TNZ008-025-027-028-033-062-065-066-010900-
NORTH MIDDLE TENNESSEE

CITY           SKY/WX    TMP DP  RH WIND       PRES   REMARKS
NASHVILLE      CLOUDY    46  18  32 S3        30.11F
CLARKSVILLE    CLOUDY    45  17  32 S8        30.07F
SMYRNA         CLOUDY    39  24  55 SE5       30.12F
COOKEVILLE     CLEAR     45  16  31 S7        30.15S
CROSSVILLE     CLOUDY    43  11  27 S7G17     30.16R
$$

TNZ061-075-076-078-094-096-097-010900-
SOUTH MIDDLE TENNESSEE

CITY           SKY/WX    TMP DP  RH WIND       PRES   REMARKS
FAYETTEVILLE   CLEAR     45  19  36 MISG      30.12F
TULLAHOMA      CLEAR     43  14  31 S8        30.13F
WINCHESTER     CLEAR     46  18  31 SE14      30.14F
MCMINNVILLE    PTCLDY    45  19  36 CALM      30.13F
COLUMBIA       MOCLDY    46  21  36 S7        30.08S
SHELBYVILLE    PTCLDY    46  19  34 SE8       30.13F
$$

TNZ017-018-042-046-047-010900-
NORTHEAST TENNESSEE

CITY           SKY/WX    TMP DP  RH WIND       PRES   REMARKS
TRI CITIES     CLOUDY    34  18  52 SW3       30.21S
ELIZABETHTON   PTSUNNY   34  12  40 CALM      30.20R
$$

TNZ012-013-036-069-073-074-010900-
CENTRAL EAST TENNESSEE

CITY           SKY/WX    TMP DP  RH WIND       PRES   REMARKS
KNOXVILLE      CLOUDY    37  23  56 CALM      30.19F
OAK RIDGE      CLOUDY    38  25  59 CALM      30.21F
GATLINBURG     SUNNY     34  25  69 NE3       30.19F
MORRISTOWN     SUNNY     36  21  55 E3        30.19F
$$

TNZ083-085-099-010900-
SOUTHEAST TENNESSEE

CITY           SKY/WX    TMP DP  RH WIND       PRES   REMARKS
CHATTANOOGA    CLOUDY    39  27  62 CALM      30.23S
$$

SKY/WX REPORTED AS FAIR MEANS FEW OR NO CLOUDS BELOW
12 THOUSAND FEET.





U.S. Dept. of Commerce
NOAA National Weather Service
1325 East West Highway
Silver Spring, MD 20910
E-mail: w-nws.webmaster@noaa.gov
Page last modified: May 16, 2007
NATIONAL WEATHER SERVICE: for Safety, for Work, for Fun - FOR LIFE